Time,TemperatureF,DewpointF,PressureIn,WindDirection,WindDirectionDegrees,WindSpeedMPH,WindSpeedGustMPH,Humidity,HourlyPrecipIn,Conditions,Clouds,dailyrainin,SoftwareType,DateUTC
2013-06-30 00:03:00,81.7,52.3,29.78,West,269,6.0,9.0,36,0.00,,,0.00,meteohub,2013-06-30 07:03:00,
2013-06-30 00:08:00,81.3,52.3,29.77,WSW,249,4.0,9.0,36,0.00,,,0.00,meteohub,2013-06-30 07:08:00,
2013-06-30 00:13:00,81.1,52.2,29.77,WSW,240,4.0,8.0,36,0.00,,,0.00,meteohub,2013-06-30 07:13:00,
2013-06-30 00:18:00,81.0,52.2,29.77,SW,231,4.0,8.0,36,0.00,,,0.00,meteohub,2013-06-30 07:18:00,
2013-06-30 00:23:00,80.8,52.2,29.77,SW,235,5.0,6.0,36,0.00,,,0.00,meteohub,2013-06-30 07:23:00,
2013-06-30 00:29:00,80.8,52.2,29.77,WSW,248,4.0,6.0,36,0.00,,,0.00,meteohub,2013-06-30 07:29:00,
2013-06-30 00:34:00,80.6,52.2,29.77,West,263,5.0,5.0,36,0.00,,,0.00,meteohub,2013-06-30 07:34:00,
2013-06-30 00:39:00,81.1,52.2,29.77,West,259,8.0,8.0,36,0.00,,,0.00,meteohub,2013-06-30 07:39:00,
2013-06-30 00:44:00,81.1,52.0,29.77,WSW,257,5.0,10.0,36,0.00,,,0.00,meteohub,2013-06-30 07:44:00,
2013-06-30 00:49:00,80.8,52.0,29.76,West,262,4.0,10.0,36,0.00,,,0.00,meteohub,2013-06-30 07:49:00,
2013-06-30 00:54:00,81.0,51.8,29.76,West,266,7.0,10.0,36,0.00,,,0.00,meteohub,2013-06-30 07:54:00,
2013-06-30 01:00:00,81.5,51.8,29.76,West,273,6.0,9.0,36,0.00,,,0.00,meteohub,2013-06-30 08:00:00,
2013-06-30 01:05:00,81.9,51.8,29.76,WNW,289,5.0,9.0,36,0.00,,,0.00,meteohub,2013-06-30 08:05:00,
2013-06-30 01:10:00,82.4,51.8,29.76,West,266,6.0,9.0,36,0.00,,,0.00,meteohub,2013-06-30 08:10:00,
2013-06-30 01:15:00,82.6,51.8,29.76,West,275,5.0,10.0,36,0.00,,,0.00,meteohub,2013-06-30 08:15:00,
2013-06-30 01:20:00,82.8,51.8,29.76,WSW,243,6.0,11.0,36,0.00,,,0.00,meteohub,2013-06-30 08:20:00,
2013-06-30 01:26:00,82.8,51.6,29.75,WSW,257,4.0,11.0,36,0.00,,,0.00,meteohub,2013-06-30 08:26:00,
2013-06-30 01:31:00,82.8,51.6,29.75,WNW,303,6.0,9.0,36,0.00,,,0.00,meteohub,2013-06-30 08:31:00,
2013-06-30 01:36:00,82.8,51.6,29.75,West,271,5.0,7.0,36,0.00,,,0.00,meteohub,2013-06-30 08:36:00,
2013-06-30 01:41:00,82.9,51.6,29.75,West,259,2.0,7.0,36,0.00,,,0.00,meteohub,2013-06-30 08:41:00,
2013-06-30 01:46:00,82.9,51.6,29.75,West,270,4.0,7.0,36,0.00,,,0.00,meteohub,2013-06-30 08:46:00,
2013-06-30 01:51:00,82.8,51.4,29.75,WNW,285,3.0,7.0,36,0.00,,,0.00,meteohub,2013-06-30 08:51:00,
2013-06-30 01:56:00,82.9,51.4,29.75,West,273,4.0,7.0,36,0.00,,,0.00,meteohub,2013-06-30 08:56:00,
2013-06-30 02:01:00,83.1,51.4,29.75,WSW,256,4.0,9.0,36,0.00,,,0.00,meteohub,2013-06-30 09:01:00,
2013-06-30 02:06:00,83.1,51.4,29.75,WSW,252,4.0,9.0,36,0.00,,,0.00,meteohub,2013-06-30 09:06:00,
2013-06-30 02:11:00,83.1,51.4,29.74,WSW,257,7.0,9.0,36,0.00,,,0.00,meteohub,2013-06-30 09:11:00,
2013-06-30 02:16:00,83.1,51.3,29.74,West,262,7.0,10.0,36,0.00,,,0.00,meteohub,2013-06-30 09:16:00,
2013-06-30 02:22:00,82.8,51.3,29.74,West,262,5.0,10.0,36,0.00,,,0.00,meteohub,2013-06-30 09:22:00,
2013-06-30 02:27:00,82.9,51.3,29.74,West,263,5.0,8.0,36,0.00,,,0.00,meteohub,2013-06-30 09:27:00,
2013-06-30 02:32:00,83.3,51.3,29.74,WSW,255,4.0,8.0,36,0.00,,,0.00,meteohub,2013-06-30 09:32:00,
2013-06-30 02:37:00,83.7,51.3,29.74,West,266,5.0,7.0,36,0.00,,,0.00,meteohub,2013-06-30 09:37:00,
2013-06-30 02:42:00,84.0,51.3,29.74,West,266,4.0,7.0,36,0.00,,,0.00,meteohub,2013-06-30 09:42:00,
2013-06-30 02:47:00,84.2,51.3,29.74,West,269,2.0,7.0,36,0.00,,,0.00,meteohub,2013-06-30 09:47:00,
2013-06-30 02:52:00,84.4,51.3,29.74,NW,304,2.0,7.0,36,0.00,,,0.00,meteohub,2013-06-30 09:52:00,
2013-06-30 02:58:00,84.7,51.3,29.74,West,281,3.0,5.0,36,0.00,,,0.00,meteohub,2013-06-30 09:58:00,
2013-06-30 03:03:00,85.1,51.1,29.74,West,276,1.0,4.0,36,0.00,,,0.00,meteohub,2013-06-30 10:03:00,
2013-06-30 03:08:00,84.6,51.1,29.74,West,276,0.0,3.0,36,0.00,,,0.00,meteohub,2013-06-30 10:08:00,
2013-06-30 03:13:00,83.5,51.1,29.74,West,276,0.0,3.0,36,0.00,,,0.00,meteohub,2013-06-30 10:13:00,
2013-06-30 03:19:00,83.1,51.1,29.74,West,276,0.0,2.0,36,0.00,,,0.00,meteohub,2013-06-30 10:19:00,
2013-06-30 03:24:00,83.7,51.1,29.74,NW,304,2.0,2.0,36,0.00,,,0.00,meteohub,2013-06-30 10:24:00,
2013-06-30 03:29:00,84.0,50.9,29.73,West,274,2.0,2.0,36,0.00,,,0.00,meteohub,2013-06-30 10:29:00,
2013-06-30 03:34:00,84.6,50.9,29.73,West,269,2.0,3.0,36,0.00,,,0.00,meteohub,2013-06-30 10:34:00,
2013-06-30 03:40:00,84.9,50.9,29.73,West,276,2.0,3.0,36,0.00,,,0.00,meteohub,2013-06-30 10:40:00,
2013-06-30 03:45:00,85.1,50.9,29.73,West,276,1.0,3.0,36,0.00,,,0.00,meteohub,2013-06-30 10:45:00,
2013-06-30 03:50:00,83.8,50.9,29.73,SSE,152,1.0,3.0,36,0.00,,,0.00,meteohub,2013-06-30 10:50:00,
2013-06-30 03:55:00,83.1,50.7,29.73,SE,141,1.0,3.0,36,0.00,,,0.00,meteohub,2013-06-30 10:55:00,
2013-06-30 04:00:00,82.6,50.7,29.73,SW,221,0.0,3.0,36,0.00,,,0.00,meteohub,2013-06-30 11:00:00,
2013-06-30 04:05:00,82.2,50.7,29.74,SW,225,2.0,3.0,36,0.00,,,0.00,meteohub,2013-06-30 11:05:00,
2013-06-30 04:10:00,82.2,50.7,29.74,SW,225,0.0,3.0,36,0.00,,,0.00,meteohub,2013-06-30 11:10:00,
2013-06-30 04:16:00,81.9,50.7,29.74,SW,225,0.0,3.0,36,0.00,,,0.00,meteohub,2013-06-30 11:16:00,
2013-06-30 04:21:00,82.0,50.7,29.74,SW,225,0.0,2.0,36,0.00,,,0.00,meteohub,2013-06-30 11:21:00,
2013-06-30 04:26:00,81.9,50.5,29.74,SW,222,0.0,2.0,36,0.00,,,0.00,meteohub,2013-06-30 11:26:00,
2013-06-30 04:31:00,82.6,50.5,29.74,SW,235,1.0,2.0,36,0.00,,,0.00,meteohub,2013-06-30 11:31:00,
2013-06-30 04:36:00,82.6,50.5,29.74,SW,233,0.0,2.0,36,0.00,,,0.00,meteohub,2013-06-30 11:36:00,
2013-06-30 04:42:00,82.0,49.8,29.74,SW,233,1.0,2.0,35,0.00,,,0.00,meteohub,2013-06-30 11:42:00,
2013-06-30 04:47:00,81.9,50.5,29.74,South,176,0.0,3.0,36,0.00,,,0.00,meteohub,2013-06-30 11:47:00,
2013-06-30 04:52:00,82.4,49.6,29.74,South,177,0.0,3.0,35,0.00,,,0.00,meteohub,2013-06-30 11:52:00,
2013-06-30 04:57:00,82.9,49.6,29.74,South,176,1.0,3.0,35,0.00,,,0.00,meteohub,2013-06-30 11:57:00,
2013-06-30 05:02:00,82.9,49.5,29.74,South,176,1.0,1.0,35,0.00,,,0.00,meteohub,2013-06-30 12:02:00,
2013-06-30 05:07:00,83.3,49.5,29.74,South,176,1.0,1.0,35,0.00,,,0.00,meteohub,2013-06-30 12:07:00,
2013-06-30 05:12:00,83.5,49.5,29.74,South,176,0.0,1.0,35,0.00,,,0.00,meteohub,2013-06-30 12:12:00,
2013-06-30 05:18:00,83.5,49.5,29.74,South,176,1.0,1.0,35,0.00,,,0.00,meteohub,2013-06-30 12:18:00,
2013-06-30 05:23:00,83.7,49.5,29.74,South,176,0.0,1.0,35,0.00,,,0.00,meteohub,2013-06-30 12:23:00,
2013-06-30 05:28:00,83.7,49.3,29.74,South,176,0.0,1.0,35,0.00,,,0.00,meteohub,2013-06-30 12:28:00,
2013-06-30 05:34:00,83.1,49.3,29.75,South,177,0.0,1.0,35,0.00,,,0.00,meteohub,2013-06-30 12:34:00,
2013-06-30 05:39:00,82.8,49.3,29.75,South,176,0.0,1.0,35,0.00,,,0.00,meteohub,2013-06-30 12:39:00,
2013-06-30 05:44:00,82.8,49.3,29.75,South,176,0.0,1.0,35,0.00,,,0.00,meteohub,2013-06-30 12:44:00,
2013-06-30 05:49:00,82.4,49.3,29.75,South,176,0.0,0.0,35,0.00,,,0.00,meteohub,2013-06-30 12:49:00,
2013-06-30 05:54:00,82.6,49.1,29.75,South,176,1.0,0.0,35,0.00,,,0.00,meteohub,2013-06-30 12:54:00,
2013-06-30 05:59:00,82.9,49.1,29.75,South,176,0.0,2.0,35,0.00,,,0.00,meteohub,2013-06-30 12:59:00,
2013-06-30 06:05:00,83.7,49.1,29.75,South,176,1.0,2.0,35,0.00,,,0.00,meteohub,2013-06-30 13:05:00,
2013-06-30 06:10:00,85.6,49.1,29.76,East,84,2.0,2.0,35,0.00,,,0.00,meteohub,2013-06-30 13:10:00,
2013-06-30 06:15:00,85.8,49.1,29.76,ENE,72,3.0,3.0,35,0.00,,,0.00,meteohub,2013-06-30 13:15:00,
2013-06-30 06:21:00,86.2,48.9,29.76,ENE,78,3.0,5.0,35,0.00,,,0.00,meteohub,2013-06-30 13:21:00,
2013-06-30 06:26:00,86.0,48.9,29.75,NE,47,4.0,5.0,35,0.00,,,0.00,meteohub,2013-06-30 13:26:00,
2013-06-30 06:31:00,85.3,48.9,29.76,NE,50,4.0,5.0,35,0.00,,,0.00,meteohub,2013-06-30 13:31:00,
2013-06-30 06:36:00,84.6,48.9,29.76,NE,49,4.0,7.0,35,0.00,,,0.00,meteohub,2013-06-30 13:36:00,
2013-06-30 06:41:00,84.7,48.9,29.76,ENE,57,4.0,7.0,35,0.00,,,0.00,meteohub,2013-06-30 13:41:00,
2013-06-30 06:47:00,85.1,48.9,29.76,ENE,71,4.0,7.0,35,0.00,,,0.00,meteohub,2013-06-30 13:47:00,
2013-06-30 06:52:00,85.8,48.9,29.76,NE,51,4.0,6.0,35,0.00,,,0.00,meteohub,2013-06-30 13:52:00,
2013-06-30 06:57:00,86.2,48.9,29.76,NE,55,3.0,6.0,35,0.00,,,0.00,meteohub,2013-06-30 13:57:00,
2013-06-30 07:02:00,86.4,48.9,29.76,NE,37,3.0,6.0,35,0.00,,,0.00,meteohub,2013-06-30 14:02:00,
2013-06-30 07:07:00,85.8,48.7,29.77,NE,51,3.0,5.0,35,0.00,,,0.00,meteohub,2013-06-30 14:07:00,
2013-06-30 07:13:00,86.2,48.7,29.77,ENE,75,5.0,6.0,35,0.00,,,0.00,meteohub,2013-06-30 14:13:00,
2013-06-30 07:18:00,87.1,48.7,29.77,ENE,77,3.0,7.0,35,0.00,,,0.00,meteohub,2013-06-30 14:18:00,
2013-06-30 07:23:00,87.1,48.7,29.77,ENE,70,4.0,7.0,35,0.00,,,0.00,meteohub,2013-06-30 14:23:00,
2013-06-30 07:28:00,86.7,48.7,29.77,NE,47,3.0,7.0,35,0.00,,,0.00,meteohub,2013-06-30 14:28:00,
2013-06-30 07:33:00,85.8,48.7,29.77,NE,41,4.0,6.0,35,0.00,,,0.00,meteohub,2013-06-30 14:33:00,
2013-06-30 07:38:00,85.3,48.7,29.77,NNE,33,5.0,6.0,35,0.00,,,0.00,meteohub,2013-06-30 14:38:00,
2013-06-30 07:43:00,84.7,48.7,29.77,NE,41,4.0,6.0,35,0.00,,,0.00,meteohub,2013-06-30 14:43:00,
2013-06-30 07:49:00,85.1,48.6,29.77,ENE,77,5.0,7.0,35,0.00,,,0.00,meteohub,2013-06-30 14:49:00,
2013-06-30 07:54:00,86.2,48.6,29.78,East,79,6.0,8.0,35,0.00,,,0.00,meteohub,2013-06-30 14:54:00,
2013-06-30 07:59:00,87.3,48.6,29.78,NE,51,5.0,8.0,35,0.00,,,0.00,meteohub,2013-06-30 14:59:00,
2013-06-30 08:05:00,87.4,48.6,29.78,ENE,67,5.0,9.0,35,0.00,,,0.00,meteohub,2013-06-30 15:05:00,
2013-06-30 08:10:00,88.2,48.6,29.78,NE,40,3.0,9.0,35,0.00,,,0.00,meteohub,2013-06-30 15:10:00,
2013-06-30 08:15:00,88.9,48.6,29.78,NE,47,5.0,9.0,35,0.00,,,0.00,meteohub,2013-06-30 15:15:00,
2013-06-30 08:20:00,89.6,48.6,29.78,NE,45,5.0,8.0,35,0.00,,,0.00,meteohub,2013-06-30 15:20:00,
2013-06-30 08:25:00,89.8,48.6,29.78,NE,54,5.0,8.0,35,0.00,,,0.00,meteohub,2013-06-30 15:25:00,
2013-06-30 08:30:00,89.4,48.6,29.78,NE,38,3.0,8.0,35,0.00,,,0.00,meteohub,2013-06-30 15:30:00,
2013-06-30 08:35:00,88.9,48.6,29.78,East,88,4.0,10.0,35,0.00,,,0.00,meteohub,2013-06-30 15:35:00,
2013-06-30 08:41:00,88.5,48.6,29.78,East,92,3.0,10.0,35,0.00,,,0.00,meteohub,2013-06-30 15:41:00,
2013-06-30 08:46:00,89.1,48.6,29.78,ESE,102,0.0,5.0,35,0.00,,,0.00,meteohub,2013-06-30 15:46:00,
2013-06-30 08:51:00,90.0,48.6,29.78,ESE,106,2.0,5.0,35,0.00,,,0.00,meteohub,2013-06-30 15:51:00,
2013-06-30 08:56:00,91.9,48.6,29.78,ENE,58,1.0,5.0,35,0.00,,,0.00,meteohub,2013-06-30 15:56:00,
2013-06-30 09:01:00,92.5,48.6,29.78,ESE,115,0.0,6.0,35,0.00,,,0.00,meteohub,2013-06-30 16:01:00,
2013-06-30 09:06:00,91.9,48.6,29.78,ENE,75,4.0,6.0,35,0.00,,,0.00,meteohub,2013-06-30 16:06:00,
2013-06-30 09:11:00,90.7,48.4,29.78,NE,44,2.0,5.0,35,0.00,,,0.00,meteohub,2013-06-30 16:11:00,
2013-06-30 09:16:00,90.0,48.6,29.78,NE,44,2.0,4.0,35,0.00,,,0.00,meteohub,2013-06-30 16:16:00,
2013-06-30 09:22:00,90.0,48.4,29.78,NE,37,3.0,4.0,35,0.00,,,0.00,meteohub,2013-06-30 16:22:00,
2013-06-30 09:27:00,90.5,48.6,29.78,NE,43,1.0,6.0,35,0.00,,,0.00,meteohub,2013-06-30 16:27:00,
2013-06-30 09:32:00,91.9,48.6,29.77,NE,44,0.0,6.0,35,0.00,,,0.00,meteohub,2013-06-30 16:32:00,
2013-06-30 09:37:00,92.3,48.6,29.77,ENE,66,3.0,6.0,35,0.00,,,0.00,meteohub,2013-06-30 16:37:00,
2013-06-30 09:42:00,91.6,48.6,29.77,NE,45,4.0,6.0,35,0.00,,,0.00,meteohub,2013-06-30 16:42:00,
2013-06-30 09:47:00,91.0,48.6,29.77,NE,46,3.0,7.0,35,0.00,,,0.00,meteohub,2013-06-30 16:47:00,
2013-06-30 09:53:00,91.0,48.6,29.77,NE,47,2.0,7.0,35,0.00,,,0.00,meteohub,2013-06-30 16:53:00,
2013-06-30 09:58:00,91.2,48.6,29.77,ENE,63,6.0,7.0,35,0.00,,,0.00,meteohub,2013-06-30 16:58:00,
2013-06-30 10:03:00,90.9,48.6,29.77,NE,44,5.0,7.0,35,0.00,,,0.00,meteohub,2013-06-30 17:03:00,
2013-06-30 10:08:00,90.7,48.6,29.77,NE,49,6.0,8.0,35,0.00,,,0.00,meteohub,2013-06-30 17:08:00,
2013-06-30 10:13:00,90.1,48.6,29.77,ENE,57,6.0,9.0,35,0.00,,,0.00,meteohub,2013-06-30 17:13:00,
2013-06-30 10:18:00,90.0,48.6,29.77,NE,36,2.0,9.0,35,0.00,,,0.00,meteohub,2013-06-30 17:18:00,
2013-06-30 10:24:00,89.8,48.6,29.77,NE,55,5.0,9.0,35,0.00,,,0.00,meteohub,2013-06-30 17:24:00,
2013-06-30 10:29:00,89.6,48.6,29.77,NE,47,3.0,8.0,35,0.00,,,0.00,meteohub,2013-06-30 17:29:00,
2013-06-30 10:34:00,89.2,48.7,29.77,NE,39,6.0,9.0,35,0.00,,,0.00,meteohub,2013-06-30 17:34:00,
2013-06-30 10:39:00,89.8,48.7,29.77,NE,55,3.0,9.0,35,0.00,,,0.00,meteohub,2013-06-30 17:39:00,
2013-06-30 10:44:00,90.0,48.7,29.77,ENE,75,4.0,9.0,35,0.00,,,0.00,meteohub,2013-06-30 17:44:00,
2013-06-30 10:49:00,89.8,48.7,29.78,NE,44,3.0,8.0,35,0.00,,,0.00,meteohub,2013-06-30 17:49:00,
2013-06-30 10:54:00,90.3,48.7,29.77,ESE,108,5.0,8.0,35,0.00,,,0.00,meteohub,2013-06-30 17:54:00,
2013-06-30 10:59:00,91.2,48.7,29.77,East,80,4.0,6.0,35,0.00,,,0.00,meteohub,2013-06-30 17:59:00,
2013-06-30 11:04:00,91.6,48.7,29.77,East,98,6.0,6.0,35,0.00,,,0.00,meteohub,2013-06-30 18:04:00,
2013-06-30 11:10:00,92.1,48.7,29.77,ESE,114,3.0,6.0,35,0.00,,,0.00,meteohub,2013-06-30 18:10:00,
2013-06-30 11:15:00,92.3,48.9,29.77,ESE,118,2.0,8.0,35,0.00,,,0.00,meteohub,2013-06-30 18:15:00,
2013-06-30 11:20:00,92.3,48.9,29.77,SSE,149,1.0,8.0,35,0.00,,,0.00,meteohub,2013-06-30 18:20:00,
2013-06-30 11:25:00,92.7,48.9,29.76,East,89,2.0,8.0,35,0.00,,,0.00,meteohub,2013-06-30 18:25:00,
2013-06-30 11:30:00,92.8,48.9,29.76,SE,137,2.0,7.0,35,0.00,,,0.00,meteohub,2013-06-30 18:30:00,
2013-06-30 11:35:00,93.7,48.9,29.77,WSW,250,3.0,6.0,35,0.00,,,0.00,meteohub,2013-06-30 18:35:00,
2013-06-30 11:40:00,94.5,48.9,29.77,North,9,0.0,5.0,35,0.00,,,0.00,meteohub,2013-06-30 18:40:00,
2013-06-30 11:46:00,94.8,48.9,29.77,WSW,238,1.0,6.0,35,0.00,,,0.00,meteohub,2013-06-30 18:46:00,
2013-06-30 11:51:00,96.4,48.9,29.77,WNW,284,4.0,6.0,35,0.00,,,0.00,meteohub,2013-06-30 18:51:00,
2013-06-30 11:56:00,97.0,48.9,29.77,ENE,63,3.0,7.0,35,0.00,,,0.00,meteohub,2013-06-30 18:56:00,
2013-06-30 12:01:00,96.8,49.1,29.77,ESE,122,2.0,9.0,35,0.00,,,0.00,meteohub,2013-06-30 19:01:00,
2013-06-30 12:06:00,96.6,49.1,29.77,WSW,257,3.0,9.0,35,0.00,,,0.00,meteohub,2013-06-30 19:06:00,
2013-06-30 12:11:00,97.2,49.1,29.76,West,262,3.0,6.0,35,0.00,,,0.00,meteohub,2013-06-30 19:11:00,
2013-06-30 12:16:00,97.3,49.1,29.76,WNW,284,3.0,11.0,35,0.00,,,0.00,meteohub,2013-06-30 19:16:00,
2013-06-30 12:21:00,98.8,49.8,29.76,NE,34,3.0,11.0,36,0.00,,,0.00,meteohub,2013-06-30 19:21:00,
2013-06-30 12:26:00,97.5,50.0,29.76,West,266,7.0,15.0,36,0.00,,,0.00,meteohub,2013-06-30 19:26:00,
2013-06-30 12:31:00,97.2,50.0,29.75,West,264,6.0,15.0,36,0.00,,,0.00,meteohub,2013-06-30 19:31:00,
2013-06-30 12:36:00,96.6,50.0,29.75,SSE,149,6.0,15.0,36,0.00,,,0.00,meteohub,2013-06-30 19:36:00,
2013-06-30 12:42:00,97.0,50.0,29.75,NW,314,13.0,13.0,36,0.00,,,0.00,meteohub,2013-06-30 19:42:00,
2013-06-30 12:47:00,97.9,50.2,29.75,SW,215,10.0,13.0,36,0.00,,,0.00,meteohub,2013-06-30 19:47:00,
2013-06-30 12:52:00,98.4,50.2,29.75,WNW,285,10.0,14.0,36,0.00,,,0.00,meteohub,2013-06-30 19:52:00,
2013-06-30 12:57:00,97.7,50.2,29.75,NW,326,7.0,14.0,36,0.00,,,0.00,meteohub,2013-06-30 19:57:00,
2013-06-30 13:02:00,97.5,50.2,29.75,ESE,108,2.0,14.0,36,0.00,,,0.00,meteohub,2013-06-30 20:02:00,
2013-06-30 13:07:00,98.1,50.4,29.75,North,11,11.0,14.0,36,0.00,,,0.00,meteohub,2013-06-30 20:07:00,
2013-06-30 13:12:00,98.1,50.4,29.74,NE,51,6.0,13.0,36,0.00,,,0.00,meteohub,2013-06-30 20:12:00,
2013-06-30 13:17:00,97.0,50.5,29.74,NNE,33,3.0,14.0,36,0.00,,,0.00,meteohub,2013-06-30 20:17:00,
2013-06-30 13:22:00,97.0,50.5,29.74,West,264,6.0,14.0,36,0.00,,,0.00,meteohub,2013-06-30 20:22:00,
2013-06-30 13:28:00,96.4,50.5,29.74,NNW,344,9.0,14.0,36,0.00,,,0.00,meteohub,2013-06-30 20:28:00,
2013-06-30 13:33:00,96.1,50.5,29.74,West,268,4.0,14.0,36,0.00,,,0.00,meteohub,2013-06-30 20:33:00,
2013-06-30 13:38:00,95.7,50.7,29.74,West,259,10.0,14.0,36,0.00,,,0.00,meteohub,2013-06-30 20:38:00,
2013-06-30 13:43:00,96.1,50.7,29.74,NNE,23,3.0,14.0,36,0.00,,,0.00,meteohub,2013-06-30 20:43:00,
2013-06-30 13:48:00,97.5,50.7,29.74,West,267,12.0,12.0,36,0.00,,,0.00,meteohub,2013-06-30 20:48:00,
2013-06-30 13:53:00,96.8,50.9,29.74,NW,304,6.0,16.0,36,0.00,,,0.00,meteohub,2013-06-30 20:53:00,
2013-06-30 13:58:00,97.3,50.9,29.73,West,277,9.0,16.0,36,0.00,,,0.00,meteohub,2013-06-30 20:58:00,
2013-06-30 14:03:00,97.5,50.9,29.73,SE,130,3.0,16.0,36,0.00,,,0.00,meteohub,2013-06-30 21:03:00,
2013-06-30 14:08:00,97.3,51.1,29.73,North,349,7.0,14.0,36,0.00,,,0.00,meteohub,2013-06-30 21:08:00,
2013-06-30 14:14:00,96.1,51.1,29.73,WSW,246,8.0,14.0,36,0.00,,,0.00,meteohub,2013-06-30 21:14:00,
2013-06-30 14:19:00,95.7,51.1,29.73,SSW,213,11.0,16.0,36,0.00,,,0.00,meteohub,2013-06-30 21:19:00,
2013-06-30 14:24:00,95.2,51.3,29.73,North,350,10.0,16.0,36,0.00,,,0.00,meteohub,2013-06-30 21:24:00,
2013-06-30 14:29:00,95.2,51.3,29.73,SW,224,15.0,16.0,36,0.00,,,0.00,meteohub,2013-06-30 21:29:00,
2013-06-30 14:34:00,95.2,51.3,29.73,WNW,287,7.0,15.0,36,0.00,,,0.00,meteohub,2013-06-30 21:34:00,
2013-06-30 14:39:00,95.2,51.3,29.73,NNW,343,4.0,18.0,36,0.00,,,0.00,meteohub,2013-06-30 21:39:00,
2013-06-30 14:44:00,94.5,51.3,29.73,West,281,6.0,18.0,36,0.00,,,0.00,meteohub,2013-06-30 21:44:00,
2013-06-30 14:49:00,94.8,51.4,29.73,North,5,6.0,18.0,36,0.00,,,0.00,meteohub,2013-06-30 21:49:00,
2013-06-30 14:55:00,94.6,51.4,29.73,WNW,290,14.0,18.0,36,0.00,,,0.00,meteohub,2013-06-30 21:55:00,
2013-06-30 15:00:00,93.9,51.4,29.73,West,278,11.0,18.0,36,0.00,,,0.00,meteohub,2013-06-30 22:00:00,
2013-06-30 15:05:00,93.7,51.6,29.73,WNW,298,9.0,18.0,36,0.00,,,0.00,meteohub,2013-06-30 22:05:00,
2013-06-30 15:10:00,93.7,51.6,29.73,West,270,13.0,17.0,36,0.00,,,0.00,meteohub,2013-06-30 22:10:00,
2013-06-30 15:15:00,92.8,51.8,29.73,SSE,160,7.0,20.0,36,0.00,,,0.00,meteohub,2013-06-30 22:15:00,
2013-06-30 15:20:00,92.1,51.8,29.73,NNW,343,12.0,20.0,36,0.00,,,0.00,meteohub,2013-06-30 22:20:00,
2013-06-30 15:25:00,92.1,51.8,29.72,WSW,252,13.0,20.0,36,0.00,,,0.00,meteohub,2013-06-30 22:25:00,
2013-06-30 15:30:00,91.9,52.0,29.72,West,270,15.0,20.0,36,0.00,,,0.00,meteohub,2013-06-30 22:30:00,
2013-06-30 15:35:00,91.2,52.7,29.72,North,357,16.0,21.0,37,0.00,,,0.00,meteohub,2013-06-30 22:35:00,
2013-06-30 15:41:00,91.6,52.9,29.72,WSW,243,14.0,21.0,37,0.00,,,0.00,meteohub,2013-06-30 22:41:00,
2013-06-30 15:46:00,91.9,52.9,29.72,West,267,11.0,21.0,37,0.00,,,0.00,meteohub,2013-06-30 22:46:00,
2013-06-30 15:51:00,91.8,53.1,29.71,NE,51,6.0,21.0,37,0.00,,,0.00,meteohub,2013-06-30 22:51:00,
2013-06-30 15:56:00,91.6,53.1,29.71,West,264,10.0,20.0,37,0.00,,,0.00,meteohub,2013-06-30 22:56:00,
2013-06-30 16:01:00,91.6,53.2,29.71,SW,222,9.0,18.0,37,0.00,,,0.00,meteohub,2013-06-30 23:01:00,
2013-06-30 16:06:00,91.8,53.2,29.71,West,271,15.0,18.0,37,0.00,,,0.00,meteohub,2013-06-30 23:06:00,
2013-06-30 16:12:00,91.0,53.2,29.71,NW,314,11.0,20.0,37,0.00,,,0.00,meteohub,2013-06-30 23:12:00,
2013-06-30 16:17:00,90.9,53.4,29.70,SW,221,11.0,20.0,37,0.00,,,0.00,meteohub,2013-06-30 23:17:00,
2013-06-30 16:22:00,90.9,53.4,29.70,WNW,282,11.0,20.0,37,0.00,,,0.00,meteohub,2013-06-30 23:22:00,
2013-06-30 16:27:00,90.9,53.4,29.70,WSW,255,15.0,20.0,37,0.00,,,0.00,meteohub,2013-06-30 23:27:00,
2013-06-30 16:32:00,90.1,53.6,29.70,WSW,250,17.0,18.0,37,0.00,,,0.00,meteohub,2013-06-30 23:32:00,
2013-06-30 16:37:00,90.0,53.6,29.70,West,276,9.0,20.0,37,0.00,,,0.00,meteohub,2013-06-30 23:37:00,
2013-06-30 16:42:00,90.0,53.6,29.70,WSW,238,14.0,20.0,37,0.00,,,0.00,meteohub,2013-06-30 23:42:00,
2013-06-30 16:47:00,89.2,53.8,29.70,West,280,13.0,20.0,37,0.00,,,0.00,meteohub,2013-06-30 23:47:00,
2013-06-30 16:53:00,89.8,53.8,29.69,WSW,249,15.0,20.0,37,0.00,,,0.00,meteohub,2013-06-30 23:53:00,
2013-06-30 16:58:00,89.2,53.8,29.69,WSW,255,15.0,19.0,37,0.00,,,0.00,meteohub,2013-06-30 23:58:00,
2013-06-30 17:03:00,88.3,54.0,29.69,NE,36,9.0,20.0,37,0.00,,,0.00,meteohub,2013-07-01 00:03:00,
2013-06-30 17:08:00,88.2,54.0,29.69,West,278,10.0,20.0,37,0.00,,,0.00,meteohub,2013-07-01 00:08:00,
2013-06-30 17:13:00,87.6,54.0,29.69,WNW,296,13.0,19.0,37,0.00,,,0.00,meteohub,2013-07-01 00:13:00,
2013-06-30 17:18:00,87.8,54.1,29.69,NNE,13,9.0,22.0,37,0.00,,,0.00,meteohub,2013-07-01 00:18:00,
2013-06-30 17:23:00,88.0,54.1,29.69,WSW,245,14.0,22.0,37,0.00,,,0.00,meteohub,2013-07-01 00:23:00,
2013-06-30 17:28:00,87.3,54.3,29.69,NNE,15,6.0,22.0,37,0.00,,,0.00,meteohub,2013-07-01 00:28:00,
2013-06-30 17:33:00,87.1,54.3,29.69,South,183,10.0,20.0,37,0.00,,,0.00,meteohub,2013-07-01 00:33:00,
2013-06-30 17:38:00,86.7,54.5,29.69,North,5,8.0,21.0,37,0.00,,,0.00,meteohub,2013-07-01 00:38:00,
2013-06-30 17:44:00,86.2,54.5,29.69,SW,216,13.0,21.0,37,0.00,,,0.00,meteohub,2013-07-01 00:44:00,
2013-06-30 17:49:00,86.2,54.5,29.69,West,281,12.0,20.0,37,0.00,,,0.00,meteohub,2013-07-01 00:49:00,
2013-06-30 17:54:00,85.8,54.0,29.69,SSW,203,12.0,19.0,36,0.00,,,0.00,meteohub,2013-07-01 00:54:00,
2013-06-30 17:59:00,85.5,54.0,29.69,NNE,13,11.0,19.0,36,0.00,,,0.00,meteohub,2013-07-01 00:59:00,
2013-06-30 18:04:00,85.5,54.0,29.68,WSW,248,12.0,18.0,36,0.00,,,0.00,meteohub,2013-07-01 01:04:00,
2013-06-30 18:09:00,84.9,54.0,29.68,West,281,13.0,17.0,36,0.00,,,0.00,meteohub,2013-07-01 01:09:00,
2013-06-30 18:14:00,84.7,54.0,29.68,SW,214,8.0,18.0,36,0.00,,,0.00,meteohub,2013-07-01 01:14:00,
2013-06-30 18:19:00,84.4,54.0,29.69,West,262,8.0,18.0,36,0.00,,,0.00,meteohub,2013-07-01 01:19:00,
2013-06-30 18:24:00,83.8,54.0,29.69,WSW,243,9.0,18.0,36,0.00,,,0.00,meteohub,2013-07-01 01:24:00,
2013-06-30 18:29:00,83.7,54.1,29.69,West,280,13.0,17.0,36,0.00,,,0.00,meteohub,2013-07-01 01:29:00,
2013-06-30 18:35:00,82.9,54.1,29.69,WSW,240,16.0,16.0,36,0.00,,,0.00,meteohub,2013-07-01 01:35:00,
2013-06-30 18:40:00,82.6,54.1,29.69,West,259,6.0,17.0,36,0.00,,,0.00,meteohub,2013-07-01 01:40:00,
2013-06-30 18:45:00,82.2,54.3,29.69,NNW,333,12.0,17.0,36,0.00,,,0.00,meteohub,2013-07-01 01:45:00,
2013-06-30 18:50:00,82.0,54.3,29.69,West,280,5.0,17.0,36,0.00,,,0.00,meteohub,2013-07-01 01:50:00,
2013-06-30 18:55:00,81.7,54.5,29.69,SSE,154,6.0,17.0,36,0.00,,,0.00,meteohub,2013-07-01 01:55:00,
2013-06-30 19:00:00,81.7,54.5,29.69,WSW,250,8.0,15.0,36,0.00,,,0.00,meteohub,2013-07-01 02:00:00,
2013-06-30 19:05:00,81.1,54.5,29.69,WSW,242,8.0,14.0,36,0.00,,,0.00,meteohub,2013-07-01 02:05:00,
2013-06-30 19:10:00,81.0,54.5,29.70,WSW,250,10.0,14.0,36,0.00,,,0.00,meteohub,2013-07-01 02:10:00,
2013-06-30 19:16:00,80.4,54.5,29.70,West,273,11.0,14.0,36,0.00,,,0.00,meteohub,2013-07-01 02:16:00,
2013-06-30 19:21:00,80.1,54.5,29.70,NNW,345,8.0,14.0,36,0.00,,,0.00,meteohub,2013-07-01 02:21:00,
2013-06-30 19:27:00,79.9,54.5,29.70,WNW,294,11.0,12.0,36,0.00,,,0.00,meteohub,2013-07-01 02:27:00,
2013-06-30 19:32:00,79.5,54.5,29.70,West,264,9.0,13.0,36,0.00,,,0.00,meteohub,2013-07-01 02:32:00,
2013-06-30 19:37:00,79.2,54.5,29.70,WSW,248,9.0,13.0,36,0.00,,,0.00,meteohub,2013-07-01 02:37:00,
2013-06-30 19:42:00,79.0,54.5,29.70,WSW,249,11.0,13.0,36,0.00,,,0.00,meteohub,2013-07-01 02:42:00,
2013-06-30 19:47:00,78.6,54.5,29.70,NW,309,8.0,13.0,36,0.00,,,0.00,meteohub,2013-07-01 02:47:00,
2013-06-30 19:52:00,78.6,54.5,29.70,NNW,338,8.0,13.0,36,0.00,,,0.00,meteohub,2013-07-01 02:52:00,
2013-06-30 19:57:00,78.6,54.5,29.70,WNW,288,9.0,13.0,36,0.00,,,0.00,meteohub,2013-07-01 02:57:00,
2013-06-30 20:03:00,79.0,54.5,29.70,WSW,242,12.0,13.0,36,0.00,,,0.00,meteohub,2013-07-01 03:03:00,
2013-06-30 20:08:00,79.3,54.5,29.71,WNW,289,10.0,15.0,36,0.00,,,0.00,meteohub,2013-07-01 03:08:00,
2013-06-30 20:13:00,79.5,54.5,29.71,SW,222,9.0,15.0,36,0.00,,,0.00,meteohub,2013-07-01 03:13:00,
2013-06-30 20:18:00,79.7,54.5,29.71,WSW,256,11.0,15.0,36,0.00,,,0.00,meteohub,2013-07-01 03:18:00,
2013-06-30 20:23:00,79.5,54.5,29.71,WNW,290,10.0,17.0,36,0.00,,,0.00,meteohub,2013-07-01 03:23:00,
2013-06-30 20:28:00,79.2,54.5,29.71,SW,226,13.0,18.0,36,0.00,,,0.00,meteohub,2013-07-01 03:28:00,
2013-06-30 20:33:00,78.6,54.5,29.71,WNW,288,15.0,18.0,36,0.00,,,0.00,meteohub,2013-07-01 03:33:00,
2013-06-30 20:38:00,78.4,54.5,29.72,WNW,300,9.0,18.0,36,0.00,,,0.00,meteohub,2013-07-01 03:38:00,
2013-06-30 20:44:00,78.3,54.5,29.71,WSW,248,12.0,15.0,36,0.00,,,0.00,meteohub,2013-07-01 03:44:00,
2013-06-30 20:49:00,78.3,54.5,29.71,South,172,7.0,15.0,36,0.00,,,0.00,meteohub,2013-07-01 03:49:00,
2013-06-30 20:54:00,78.3,54.3,29.72,SW,224,10.0,18.0,36,0.00,,,0.00,meteohub,2013-07-01 03:54:00,
2013-06-30 20:59:00,78.3,54.1,29.72,WSW,239,16.0,18.0,36,0.00,,,0.00,meteohub,2013-07-01 03:59:00,
2013-06-30 21:01:00,78.3,54.3,29.71,SW,219,12.0,18.0,36,0.00,,,0.00,meteohub,2013-07-01 04:01:00,
2013-06-30 21:02:00,78.3,54.3,29.71,WNW,293,12.0,18.0,36,0.00,,,0.00,meteohub,2013-07-01 04:02:00,
2013-06-30 21:03:00,78.3,54.3,29.72,SW,225,13.0,18.0,36,0.00,,,0.00,meteohub,2013-07-01 04:03:00,
2013-06-30 21:05:00,78.1,54.1,29.72,WSW,237,15.0,18.0,36,0.00,,,0.00,meteohub,2013-07-01 04:05:00,
2013-06-30 21:10:00,78.3,54.1,29.72,WSW,257,11.0,18.0,36,0.00,,,0.00,meteohub,2013-07-01 04:10:00,
2013-06-30 21:15:00,78.4,54.1,29.72,NW,312,12.0,20.0,36,0.00,,,0.00,meteohub,2013-07-01 04:15:00,
2013-06-30 21:20:00,78.4,54.1,29.73,NNE,27,12.0,20.0,36,0.00,,,0.00,meteohub,2013-07-01 04:20:00,
2013-06-30 21:25:00,78.3,54.1,29.73,WNW,294,11.0,20.0,36,0.00,,,0.00,meteohub,2013-07-01 04:25:00,
2013-06-30 21:30:00,78.3,54.1,29.73,WSW,246,11.0,20.0,36,0.00,,,0.00,meteohub,2013-07-01 04:30:00,
2013-06-30 21:35:00,78.4,54.0,29.73,WSW,249,12.0,18.0,36,0.00,,,0.00,meteohub,2013-07-01 04:35:00,
2013-06-30 21:40:00,78.4,54.0,29.73,WSW,250,14.0,18.0,36,0.00,,,0.00,meteohub,2013-07-01 04:40:00,
2013-06-30 21:45:00,78.3,54.0,29.74,SSW,210,10.0,17.0,36,0.00,,,0.00,meteohub,2013-07-01 04:45:00,
2013-06-30 21:51:00,78.3,54.0,29.74,SW,235,12.0,17.0,36,0.00,,,0.00,meteohub,2013-07-01 04:51:00,
2013-06-30 21:56:00,78.1,54.0,29.74,WSW,241,15.0,16.0,36,0.00,,,0.00,meteohub,2013-07-01 04:56:00,
2013-06-30 22:01:00,78.1,54.0,29.74,SW,236,13.0,16.0,36,0.00,,,0.00,meteohub,2013-07-01 05:01:00,
2013-06-30 22:06:00,78.4,54.0,29.74,WSW,255,11.0,16.0,36,0.00,,,0.00,meteohub,2013-07-01 05:06:00,
2013-06-30 22:11:00,78.4,54.0,29.74,WSW,257,12.0,16.0,36,0.00,,,0.00,meteohub,2013-07-01 05:11:00,
2013-06-30 22:16:00,78.6,54.0,29.74,NE,50,12.0,16.0,36,0.00,,,0.00,meteohub,2013-07-01 05:16:00,
2013-06-30 22:22:00,78.8,54.0,29.74,SSW,204,10.0,16.0,36,0.00,,,0.00,meteohub,2013-07-01 05:22:00,
2013-06-30 22:27:00,78.6,54.0,29.74,WNW,294,13.0,18.0,36,0.00,,,0.00,meteohub,2013-07-01 05:27:00,
2013-06-30 22:32:00,78.6,53.8,29.74,SSW,203,9.0,18.0,36,0.00,,,0.00,meteohub,2013-07-01 05:32:00,
2013-06-30 22:37:00,78.6,53.8,29.74,WSW,245,11.0,17.0,36,0.00,,,0.00,meteohub,2013-07-01 05:37:00,
2013-06-30 22:42:00,78.8,53.8,29.74,NNW,346,12.0,16.0,36,0.00,,,0.00,meteohub,2013-07-01 05:42:00,
2013-06-30 22:47:00,78.6,53.8,29.74,West,274,11.0,16.0,36,0.00,,,0.00,meteohub,2013-07-01 05:47:00,
2013-06-30 22:52:00,78.4,53.8,29.74,West,276,13.0,16.0,36,0.00,,,0.00,meteohub,2013-07-01 05:52:00,
2013-06-30 22:57:00,77.9,53.6,29.74,South,191,11.0,16.0,36,0.00,,,0.00,meteohub,2013-07-01 05:57:00,
2013-06-30 23:02:00,77.5,53.6,29.74,WSW,256,12.0,15.0,36,0.00,,,0.00,meteohub,2013-07-01 06:02:00,
2013-06-30 23:08:00,77.4,53.4,29.74,West,267,9.0,14.0,36,0.00,,,0.00,meteohub,2013-07-01 06:08:00,
2013-06-30 23:13:00,77.4,53.4,29.74,WSW,255,14.0,14.0,36,0.00,,,0.00,meteohub,2013-07-01 06:13:00,
2013-06-30 23:18:00,77.7,53.4,29.74,NW,314,17.0,17.0,36,0.00,,,0.00,meteohub,2013-07-01 06:18:00,
2013-06-30 23:23:00,77.5,53.4,29.74,WSW,252,12.0,16.0,36,0.00,,,0.00,meteohub,2013-07-01 06:23:00,
2013-06-30 23:28:00,77.4,53.2,29.74,West,274,12.0,17.0,36,0.00,,,0.00,meteohub,2013-07-01 06:28:00,
2013-06-30 23:33:00,77.2,53.2,29.74,WSW,238,15.0,18.0,36,0.00,,,0.00,meteohub,2013-07-01 06:33:00,
2013-06-30 23:39:00,76.8,53.2,29.74,NW,319,16.0,19.0,36,0.00,,,0.00,meteohub,2013-07-01 06:39:00,
2013-06-30 23:44:00,76.3,53.2,29.74,West,260,14.0,19.0,36,0.00,,,0.00,meteohub,2013-07-01 06:44:00,
2013-06-30 23:49:00,76.1,53.1,29.74,SW,222,16.0,20.0,36,0.00,,,0.00,meteohub,2013-07-01 06:49:00,
2013-06-30 23:54:00,76.1,53.1,29.74,NNW,343,10.0,20.0,36,0.00,,,0.00,meteohub,2013-07-01 06:54:00,
2013-06-30 23:59:00,75.6,53.1,29.74,WSW,239,13.0,20.0,36,0.00,,,0.00,meteohub,2013-07-01 06:59:00,